Location: Newark
(44.4156°N, 12.1972°E)
Time: 02:48:10
(UTC+00:00)

STARLINK-1113 - Pass Details

Date: 29 January 2020
Orbit: 554 x 556 km, 53.0° (Epoch: 28 February)

Event Time Altitude Azimuth Distance (km) Brightness Sun altitude
Rises 17:58:11 0° 303° (WNW) 2,739 8.0 -18.4°
Reaches altitude 10° 18:00:26 10° 305° (NW) 1,842 7.0 -18.8°
Maximum altitude 18:04:38 81° 33° (NNE) 568 3.5 -19.5°
Enters shadow 18:05:39 50° 111° (ESE) 709 3.8 -19.7°
